NOAA NWS Hourly Roundups by Site

Regional Weather Roundup for Omaha, NE

To Select Another Site Choose from List

Select Site:  

000
ASUS43 KOAX 021410
RWRNE

WEATHER ROUNDUP FOR NEBRASKA
NATIONAL WEATHER SERVICE OMAHA NE
900 AM CDT SAT JUL 02 2022

NOTES: SATELLITE DATA IS BEING USED TO AUGMENT CLOUD COVER ABOVE
       12000 FEET.
       "FAIR" INDICATES FEW OR NO CLOUDS BELOW 12,000 FEET WITH NO
       SIGNIFICANT WEATHER AND/OR OBSTRUCTIONS TO VISIBILITY.


NEZ001>004-019>022-054>056-021500-
NEBRASKA PANHANDLE

CITY           SKY/WX    TMP DP  RH WIND       PRES   REMARKS
SCOTTSBLUFF    SUNNY     66  58  75 SE9       30.10S
ALLIANCE       SUNNY     66  58  75 S15       30.09R
CHADRON        SUNNY     69  60  73 W7        30.04R
GORDON         SUNNY     66  57  72 SW8       30.06R
KIMBALL        CLOUDY    61  58  88 S10G16    30.16R
SIDNEY         SUNNY     63  57  81 S6        30.12F
$$

NEZ057>060-069>072-079>082-021500-
SOUTHWEST NEBRASKA

CITY           SKY/WX    TMP DP  RH WIND       PRES   REMARKS
NORTH PLATTE   MOSUNNY   69  64  84 W3        30.02R
IMPERIAL       SUNNY     69  63  81 S6        30.06F
LEXINGTON      PTSUNNY   69  63  80 SE8       30.02F
MCCOOK         CLOUDY    67  65  93 NE5       30.04S
OGALLALA       SUNNY     67  64  88 SW6       30.07S
$$

NEZ005>010-023>029-035>040-094-021500-
NORTH CENTRAL NEBRASKA

CITY           SKY/WX    TMP DP  RH WIND       PRES   REMARKS
VALENTINE      SUNNY     69  61  75 E5        30.02R
AINSWORTH      SUNNY     69  60  73 E6        30.03R
BROKEN BOW     CLOUDY    67  62  84 E6        30.03R
O`NEILL        MOSUNNY   70  60  70 S9        30.05R
ORD            PTSUNNY   67  62  84 SE3       30.02S
THEDFORD       MOSUNNY   67  60  77 SE5       30.05R
$$

NEZ041-046>049-061>064-073>077-083>087-021500-
SOUTH CENTRAL NEBRASKA

CITY           SKY/WX    TMP DP  RH WIND       PRES   REMARKS
GRAND ISLAND   CLOUDY    68  64  87 CALM      30.06R
AURORA         CLOUDY    68  66  93 S5        30.05R
HASTINGS       CLOUDY    67  65  93 S8        30.05R
HEBRON         RAIN      69  66  92 SE10      30.03S
HOLDREGE       CLOUDY    67  66  96 SE7       30.03R FOG
KEARNEY        CLOUDY    66  66 100 SE9       30.05R FOG
YORK           CLOUDY    68  68 100 S7        30.03S
$$

NEZ011>018-030>034-042>045-021500-
NORTHEAST NEBRASKA

CITY           SKY/WX    TMP DP  RH WIND       PRES   REMARKS
NORFOLK        PTSUNNY   71  62  73 S9        30.04R
ALBION         PTSUNNY   67  64  89 S10       30.05R
BLAIR          MOSUNNY   69  59  69 S7        30.06S
COLUMBUS       PTSUNNY   68  66  93 SE7       30.05R
FREMONT        PTSUNNY   72  62  70 SE8       30.06S
TEKAMAH        MOSUNNY   68  63  84 CALM      30.05S
WAYNE          MOSUNNY   72  59  64 S10       30.04R
$$

NEZ050>053-065>068-078-088>093-021500-
SOUTHEAST NEBRASKA

CITY           SKY/WX    TMP DP  RH WIND       PRES   REMARKS
LINCOLN        LGT RAIN  68  66  93 SE5       30.04S FOG
OMAHA EPPLEY   PTSUNNY   70  59  68 SE7       30.06R
BEATRICE       LGT RAIN  68  67  97 CALM      30.06R
FALLS CITY     LGT RAIN  64  63  96 N5        30.06R
NEBRASKA CITY  DRIZZLE   66  63  89 N5        30.08R
PLATTSMOUTH    CLOUDY    67  63  88 CALM      30.07R
$$

NEZ044-045-051>053-067-021500-
OMAHA AREA

CITY           SKY/WX    TMP DP  RH WIND       PRES   REMARKS
OMAHA EPPLEY   PTSUNNY   70  59  68 SE7       30.06R
BLAIR          MOSUNNY   69  59  69 S7        30.06S
FREMONT        PTSUNNY   72  62  70 SE8       30.06S
MILLARD        CLOUDY    69  61  76 SE6       30.06F
OFFUTT AFB     PTSUNNY   68  60  74 E3        30.09R
PLATTSMOUTH    CLOUDY    67  63  88 CALM      30.07R
WAHOO          CLOUDY    67  66  96 SE6       30.06R
$$


 

View Past Reports for Omaha, NE.

Products Courtesy of NOAA-NWS
NWS Information Parsing Script by Ken True at Saratoga Weather - Script by SE Lincoln Weather.